This is the latest recevied weather packets stored in our database for station/object K4IR. If no packets are shown the sender has not sent any weather packets the latest 10 day(s).
| Time | Temp. | Humidity | Pressure | Rain* | Wind** | Luminosity | Snow |
|---|---|---|---|---|---|---|---|
| 1787951563 | 27.22° C | 87% | 1017.3 hPa | 0 mm | - | 80 W/m² | - |
| 1787950960 | 27.22° C | 87% | 1017.2 hPa | 0 mm | - | 88 W/m² | - |
| 1787950358 | 27.22° C | 86% | 1017.1 hPa | 0 mm | - | 111 W/m² | - |
| 1787949755 | 27.78° C | 85% | 1017.2 hPa | 0 mm | - | 143 W/m² | - |
| 1787949155 | 27.22° C | 85% | 1017.4 hPa | 0 mm | - | 161 W/m² | - |
| 1787948551 | 27.22° C | 86% | 1017.2 hPa | 0 mm | - | 126 W/m² | - |
| 1787947951 | 27.22° C | 86% | 1017.4 hPa | 0 mm | - | 108 W/m² | - |
| 1787947351 | 27.22° C | 84% | 1017.4 hPa | 0 mm | - | 125 W/m² | - |
| 1787946749 | 27.78° C | 84% | 1017.3 hPa | 0 mm | - | 182 W/m² | - |
| 1787946149 | 27.78° C | 83% | 1017.6 hPa | 0 mm | - | 205 W/m² | - |
| 1787945545 | 27.78° C | 83% | 1017.5 hPa | 0 mm | - | 191 W/m² | - |
| 1787944946 | 27.78° C | 83% | 1017.4 hPa | 0 mm | - | 191 W/m² | - |
| 1787944345 | 28.33° C | 80% | 1017.7 hPa | 0 mm | - | 238 W/m² | - |
| 1787943741 | 27.78° C | 83% | 1017.7 hPa | 0 mm | - | 249 W/m² | - |
| 1787943138 | 27.78° C | 83% | 1017.7 hPa | 0 mm | - | 226 W/m² | - |
| 1787942534 | 27.78° C | 82% | 1017.8 hPa | 0 mm | - | 240 W/m² | - |
| 1787941929 | 27.78° C | 83% | 1017.9 hPa | 0 mm | - | 208 W/m² | - |
| 1787941328 | 27.78° C | 83% | 1017.9 hPa | 0 mm | - | 221 W/m² | - |
| 1787940727 | 27.78° C | 83% | 1017.9 hPa | 0 mm | - | 188 W/m² | - |
| 1787940126 | 27.78° C | 83% | 1018 hPa | 0 mm | - | 179 W/m² | - |
| 1787939525 | 27.78° C | 82% | 1017.9 hPa | 0 mm | - | 224 W/m² | - |
| 1787938920 | 28.33° C | 82% | 1017.7 hPa | 0 mm | - | 249 W/m² | - |
| 1787938316 | 28.33° C | 82% | 1017.9 hPa | 0 mm | - | 261 W/m² | - |
| 1787937712 | 28.33° C | 82% | 1018.2 hPa | 0 mm | - | 308 W/m² | - |
| 1787937110 | 27.78° C | 83% | 1018.3 hPa | 0 mm | - | 251 W/m² | - |
* Rain latest hour (hover to see other rain measurements)
** Current wind speed in m/s (hover to see current wind gust speed)